Main page
Satellite images Climate Cyclones Lightning AirportsFAQ Languages Contact Newsletter About
Weather : Europe Africa North America South America Asia Australia-Oceania Others

5342, Chiang Mai, Chiang Mai International Airport

48327

latitude: , longitude: Thailand, elevation: 18-47N m


METAR: VTCC 200130Z 17003KT 9999 FEW035 27/23 Q1013 NOSIG